www.pogodaiklimat.ru

Погода и климат >> Архив погоды >> Иран >> Saravan


ПОГОДА в Saravan

  • Прогноз погоды в Saravan
  • Монитор погоды в Saravan
  • Климат города

АРХИВ ПОГОДЫ в Saravan

Время (UTC), дата Ветер
(напр.,м/с)
 
Видим.   Явления Облачность Т
(С)
Тd
(С)
f
(%)
Тe
(С)
Тes
(С)
Комфортность P
(гПа)
Po
(гПа)
Тmin
(С)
Tmax
(С)
R
(мм)
R24
(мм)
S
(см)
12 11.12 В 4 15 км ясно +16.4 -17.2 9 +16 +17 1019.5 883.9
15 11.12 штиль 0 15 км ясно +10.6 -17.3 12 +11 +11 1022.9 885.2 +17.7
18 11.12 штиль 0 15 км ясно +6.2 -17.2 17 +6 +6 1021.7 885.7
21 11.12 ЮЗ 2 15 км ясно +2.4 -20.4 17 +1 +1 1019.8 884.4
00 12.12 штиль 0 15 км ясно +0.6 -20.1 19 +1 +1 1019.1 883.6
03 12.12 З 2 15 км 5/0
[Ac trans]
+0.4 -19.0 22 -2 -2 1021.5 884.3 -0.8
06 12.12 штиль 0 15 км 5/0
[Ac As]
+9.8 -16.7 14 +10 +16 1021.8 885.7
09 12.12 СВ 7 15 км 1/0
[Ac As]
+14.5 -15.2 11 +13 +15 1019.4 883.9
12 12.12 СВ 5 15 км 1/0
[Ac As]
+14.4 -15.6 11 +13 +14 1020.2 884.1
15 12.12 СВ 4 15 км ясно +10.2 -13.1 18 +8 +8 1023.2 885.8 +15.2
18 12.12 СВ 2 15 км ясно +7.8 -13.2 21 +7 +7 1022.8 887.0
21 12.12 С 3 15 км ясно +6.6 -12.4 24 +5 +5 1022.5 886.9
00 13.12 С 2 15 км ясно +0.6 -14.2 32 -2 -2 1023.1 886.7
03 13.12 С 2 15 км ясно +1.0 -13.9 32 -1 -1 1025.6 888.0 0.0
06 13.12 СВ 4 15 км ясно +8.5 -11.4 23 +6 +11 1025.2 888.8
09 13.12 СВ 3 15 км ясно +12.0 -12.5 17 +11 +18 1021.5 886.1
12 13.12 СВ 4 15 км ясно +12.3 -11.6 18 +11 +12 1022.2 885.4
15 13.12 СВ 3 15 км ясно +8.4 -12.2 22 +7 +7 1024.1 886.3 +13.0
18 13.12 штиль 0 15 км ясно +6.4 -12.3 25 +7 +7 1023.5 887.0
21 13.12 штиль 0 15 км ясно +1.2 -13.4 33 +1 +1 1023.1 886.7
00 14.12 СЗ 2 15 км ясно -0.6 -15.1 32 -3 -3 1023.8 886.5
03 14.12 З 2 15 км ясно -1.4 -15.0 35 -4 -4 1026.4 887.7 -1.7
06 14.12 ЮЗ 3 15 км ясно +9.2 -12.1 21 +8 +13 1025.6 889.0
09 14.12 В 2 15 км ясно +14.0 -12.5 15 +14 +22 1024.0 887.5
12 14.12 СВ 2 15 км ясно +14.6 -12.7 14 +15 +16 1023.3 886.6
15 14.12 штиль 0 15 км ясно +10.8 -12.1 19 +11 +11 1026.0 887.9 +15.2
18 14.12 штиль 0 12 км ясно +6.2 -12.8 24 +6 +6 1025.0 888.4
21 14.12 СЗ 2 15 км ясно +2.2 -14.7 27 0 0 1024.0 887.4
00 15.12 штиль 0 15 км ясно -0.1 -15.9 29 -0 -0 1024.3 887.6
03 15.12 С 2 15 км ясно -2.0 -17.8 29 -5 -5 1027.0 888.6 -2.1
06 15.12 штиль 0 15 км ясно +10.4 -13.4 17 +11 +19 1026.8 890.2
09 15.12 Ю 3 15 км 4/0
[Ci sp]
+15.3 -10.5 16 +15 +21 1024.0 888.0
12 15.12 штиль 0 15 км 5/0
[Cs]
+17.4 -11.7 13 +17 +18 1023.6 887.6
15 15.12 штиль 0 15 км 4/0
[Cs]
+11.8 -12.6 17 +12 +12 1026.7 888.6 +18.1
18 15.12 штиль 0 15 км ясно +8.4 -12.9 21 +9 +9 1024.9 889.1
21 15.12 штиль 0 15 км ясно +4.9 -13.4 25 +5 +5 1023.8 888.9
00 16.12 штиль 0 15 км ясно +2.3 -15.1 26 +2 +2 1024.3 888.7
03 16.12 С 2 15 км 4/1 1200 м
[Sc Ci sp]
+1.6 -16.3 25 -1 -0 1027.3 889.9 +1.1
06 16.12 штиль 0 15 км 6/0
[Ac As]
+9.9 -12.1 20 +10 +15 1027.5 891.2
09 16.12 Ю 2 15 км 5/1 1200 м
[Cu hum Ci sp]
+16.8 -6.5 20 +17 +24 1023.8 888.8
12 16.12 штиль 0 15 км 6/3 1200 м
[Cu hum Ac trans]
+17.0 -4.2 23 +17 +18 1023.5 888.1
15 16.12 штиль 0 15 км 4/1 1200 м
[Sc diur, vesp Ac trans]
+14.7 -3.6 28 +15 +15 1026.1 889.7 +18.2
18 16.12 штиль 0 15 км ясно +9.8 -5.7 33 +10 +10 1026.2 890.5
21 16.12 штиль 0 15 км ясно +7.4 -6.3 37 +7 +7 1024.4 889.4
00 17.12 штиль 0 15 км ясно +6.8 -7.8 34 +7 +7 1023.4 888.9
03 17.12 штиль 0 15 км 5/0
[Cc]
+5.1 -8.7 36 +5 +5 1026.0 890.3 +5.1
06 17.12 штиль 0 15 км 6/0
[Ac trans Cc]
+13.5 -4.4 29 +14 +20 1026.5 891.6
09 17.12 Ю 3 15 км 4/0
[Cc]
+18.6 -7.0 17 +19 +25 1022.9 889.0
12 17.12 Ю 3 15 км 3/0
[Cc]
+18.6 -9.8 14 +19 +19 1021.2 887.3
15 17.12 СВ 3 15 км 3/0
[Cc]
+14.2 -10.7 17 +14 +14 1024.7 889.0 +19.5
18 17.12 штиль 0 15 км ясно +12.4 -10.8 19 +13 +13 1023.6 889.5
21 17.12 штиль 0 15 км ясно +6.4 -11.7 26 +7 +7 1023.2 889.0
00 18.12 штиль 0 15 км 3/0
[Cc]
+4.8 -13.0 26 +5 +5 1023.8 889.1
03 18.12 штиль 0 15 км 5/0
[Ac trans Cc]
+5.3 -11.8 28 +5 +5 1025.8 890.0 +4.0
06 18.12 З 2 15 км 5/0
[Ac As]
+13.9 -8.7 20 +14 +18 1026.0 891.7
09 18.12 штиль 0 15 км 9/0
[Ac trans Cs]
+16.7 -0.9 30 +17 +24 1023.8 889.2

 

Местоположение метеостанции Saravan (Иран): широта 27.33 долгота 62.33 высота над уровнем моря 1195 м.

В архиве по умолчанию представлена погода в Saravan за последнюю неделю. Архивные данные за месяц целиком и за предыдущие месяцы, начиная с января 2011 года, Вы можете получить, выбрав интересующий диапазон дат из раскрывающегося списка и нажав кнопку "Ввод!".

Внимание! Время в таблицах - всемирное. Для получения местного времени необходимо прибавить поправку, которая в Saravan равна 3.5 ч.

Смотрите также архив погоды в соседних городах и на ближайших метеорологических станциях:

Погода в Iranshahr (Иран) (162 км)
Погода в Nokkundi (Пакистан) (171 км)
Погода в Panjgur (Пакистан) (180 км)
Погода в Gawadar (Пакистан) (245 км)
Погода в Pasni (Пакистан) (256 км)
Погода в Jiwani (Пакистан) (257 км)
Погода в Dal Bandin (Пакистан) (266 км)
Погода в Zahedan (Иран) (277 км)
Погода в Chah Bahar Airport (Иран) (285 км)
Погода в Zabol (Иран) (422 км)

Пояснения к столбцам:

Ветер - указаны скорость ветра в м/с - средняя за 10 мин, порывы в срок и между сроками (в фигурных скобках) и направление, откуда дует ветер: С - северный, СВ - северо-восточный, В - восточный, ЮВ - юго-восточный, Ю - южный, ЮЗ - юго-западный, З - западный, СЗ - северо-западный.
Видимость - горизонтальная дальность видимости в метрах или километрах. При видимости от 1 до 10 км при отсутствии осадков обычно наблюдается дымка, при ухудшении видимости до 1 км и менее - туман. В сухую погоду видимость может ухудшаться дымом, пылью или мглою.
Явления - указаны атмосферные явления, наблюдавшиеся в срок или в последний час перед сроком; фигурными скобками обозначены явления, наблюдавшиеся между сроками (за 1-3 часа до срока); квадратными скобками обозначены град или гололедные отложения с указанием их диаметра в мм.
Облачность - указаны через наклонную черту общая и нижняя облачность в баллах и высота нижней границы облаков в метрах; квадратными скобками обозначены формы облаков: Ci - перистые, Cs - перисто-слоистые, Cc - перисто-кучевые, Ac - высококучевые, As - высокослоистые, Sc - слоисто-кучевые, Ns - слоисто-дождевые, Cu - кучевые, Cb - кучево-дождевые. Подробнее классификацию облаков см. в Атласе облаков (PDF).
T - Температура воздуха - температура, измеренная на высоте 2 м над землей.
Td - Температура точки росы - температура, при понижении до которой содержащийся в воздухе водяной пар достигнет насыщения.
f - Относительная влажность воздуха - влажноcть воздуха, измеренная на высоте 2 м над землей.
Te - Эффективная температура - температура, которую ощущает одетый по сезону человек в тени. Характеристика душности погоды. При расчете учитывается влияние влажности воздуха и скорости ветра на теплоощущения человека.
Tes - Эффективная температура на солнце - температура, которую ощущает человек, с поправкой на солнечный нагрев. Характеристика знойности погоды. Зависит от высоты солнца над горизонтом, облачности и скорости ветра. Ночью, в пасмурную погоду, а также при ветре 12 м/с и более поправка равна нулю.
P - Атмосферное давление - приведенное к уровню моря атмосферное давление.
Po - Атмосферное давление - измеренное на уровне метеостанции атмосферное давление.
Tmin - Минимальная температура - минимум температуры воздуха на высоте 2 м над землей.
Tmax - Максимальная температура - максимум температуры воздуха на высоте 2 м над землей.
R - Количество осадков - Количество выпавших осадков за период времени, мм. При наведении курсора мыши на число - период времени, за который выпало указанное количество осадков.
R24 - Количество осадков - Количество выпавших осадков за 24 часа, мм.
S - Снежный покров - Высота снежного покрова, см. При наведении курсора мыши на число - состояние снежного покрова и степень покрытия местности в баллах.